This is the latest recevied weather packets stored in our database for station/object WD4DAN-13. If no packets are shown the sender has not sent any weather packets the latest 10 day(s).
| Time | Temp. | Humidity | Pressure | Rain* | Wind** | Luminosity | Snow |
|---|---|---|---|---|---|---|---|
| 1777830354 | 23.33° C | 45% | - | 0 mm | - | - | - |
| 1777830050 | 22.22° C | 40% | - | 0 mm | - | - | - |
| 1777829745 | 21.67° C | 39% | - | 0 mm | - | - | - |
| 1777829442 | 22.22° C | 39% | - | 0 mm | - | - | - |
| 1777829139 | 21.67° C | 38% | - | 0 mm | - | - | - |
| 1777828836 | 22.22° C | 38% | - | 0 mm | - | - | - |
| 1777828533 | 22.22° C | 36% | - | 0 mm | - | - | - |
| 1777828230 | 22.22° C | 39% | - | 0 mm | - | - | - |
| 1777827926 | 21.67° C | 38% | - | 0 mm | - | - | - |
| 1777827624 | 21.67° C | 39% | - | 0 mm | - | - | - |
| 1777827321 | 22.22° C | 46% | - | 0 mm | - | - | - |
| 1777827018 | 21.67° C | 41% | - | 0 mm | - | - | - |
| 1777826715 | 22.22° C | 38% | - | 0 mm | - | - | - |
| 1777826411 | 21.11° C | 41% | - | 0 mm | - | - | - |
| 1777826109 | 21.11° C | 39% | - | 0 mm | - | - | - |
| 1777825805 | 21.67° C | 42% | - | 0 mm | - | - | - |
| 1777825503 | 21.11° C | 41% | - | 0 mm | - | - | - |
| 1777825200 | 21.67° C | 42% | - | 0 mm | - | - | - |
| 1777824896 | 21.11° C | 43% | - | 0 mm | - | - | - |
| 1777824593 | 21.11° C | 42% | - | 0 mm | - | - | - |
| 1777824290 | 21.11° C | 45% | - | 0 mm | - | - | - |
| 1777823985 | 21.11° C | 47% | - | 0 mm | - | - | - |
| 1777823682 | 21.11° C | 44% | - | 0 mm | - | - | - |
| 1777823379 | 21.11° C | 43% | - | 0 mm | - | - | - |
| 1777823077 | 21.11° C | 44% | - | 0 mm | - | - | - |
* Rain latest hour (hover to see other rain measurements)
** Current wind speed in m/s (hover to see current wind gust speed)